Regional Weather Roundup
Issued by NWS

Home | Current Version | Previous Version | Graphics & Text | Print | Product List | Glossary On
Versions: 1 2 3 4 5 6 7 8 9 10 11 12 13 14 15 16 17 18 19 20 21 22 23 24 25 26 27 28 29 30 31 32 33 34 35 36 37 38 39 40 41 42 43 44 45 46 47 48 49 50
000
ASUS43 KFSD 062102
RWRSD

WEATHER ROUNDUP FOR SOUTH DAKOTA
NATIONAL WEATHER SERVICE SIOUX FALLS SD
400 PM CDT WED MAY 06 2015

NOTE: "FAIR" INDICATES FEW OR NO CLOUDS BELOW 12,000 FEET WITH NO
SIGNIFICANT WEATHER AND/OR OBSTRUCTIONS TO VISIBILITY.


SDZ001>005-009-010-012>017-062200-
NORTHWEST AND NORTH CENTRAL SOUTH DAKOTA

CITY           SKY/WX    TMP DP  RH WIND       PRES   REMARKS
BUFFALO          N/A     58  55  90 NW20G25   29.60F
FAITH            N/A     66  55  67 E10       29.61F
MOBRIDGE       CLOUDY    69  62  78 SE14      29.60F
$$

SDZ012>016-024>037-041>051-057-063-072>074-062200-
SOUTHWEST AND SOUTH CENTRAL SOUTH DAKOTA

CITY           SKY/WX    TMP DP  RH WIND       PRES   REMARKS
RAPID CTY ARPT CLOUDY    68  51  54 SW3       29.60F
PIERRE         CLOUDY    70  58  65 SE21G30   29.59F
CUSTER         RAIN      53  50  89 VRB3      29.68F FOG
ELLSWORTH AFB  CLOUDY    66  52  59 N6        29.60F
PHILIP         LGT RAIN  60  58  92 S12       29.60S
PINE RIDGE     CLOUDY    66  49  54 MISG      29.59F
WINNER         CLOUDY    69  60  73 S12       29.62F
$$

SDZ004>011-016>023-039-040-062200-
NORTHEAST SOUTH DAKOTA

CITY           SKY/WX    TMP DP  RH WIND       PRES   REMARKS
ABERDEEN       CLOUDY    66  62  87 SE14      29.66F
WATERTOWN      PTSUNNY   67  61  81 S26G32    29.71F
BROOKINGS      PTSUNNY   63  61  94 S17G24    29.75S
SISSETON         N/A     66  63  90 SE20      29.70F
$$

SDZ017-020-022-023-036>040-048>070-062200-
SOUTHEAST SOUTH DAKOTA

CITY           SKY/WX    TMP DP  RH WIND       PRES   REMARKS
SIOUX FALLS    CLOUDY    71  59  65 S23G33    29.73F
HURON          LGT RAIN  67  62  84 S18G31    29.65F
MITCHELL       PTSUNNY   71  60  68 S24G36    29.67F
YANKTON        PTSUNNY   66  61  82 SE21G33   29.71S
$$

ABBREVIATIONS USED IN REMARKS
   TC - TEMPERATURE IN CELSIUS
  WCI - WIND CHILL INDEX
   HX - HEAT INDEX
  VSB - VISIBILITY



USA.gov is the U.S. government's official web portal to all federal, state and local government web resources and services.